Hourly Data Report for October 21, 2016

All times are specified in Local Standard Time (LST). Add 1 hour to adjust for Daylight Saving Time where and when it is observed.

POND INLET A
NUNAVUT

72°41'22.000" N
77°58'08.000" W
61.60 m
2403206
71095
YIO

Related Data

No related data is available for this station

Download Data

Hourly Data (October 2016)
Hourly Data Report for October 21, 2016
Temp Definition
°C
Dew Point Temp Definition
°C
Rel Hum Definition
%
Wind Dir Definition
10's deg

Wind Spd Definition
km/h
Visibility Definition
km
Stn Press Definition
kPa
Hmdx Definition


Wind Chill Definition


Weather Definition


TIME
00:00 Legend Double Dagger -9.8 -13.0 78 17 8 16.1 100.02   -14 LegendNANA
01:00 Legend Double Dagger -10.8 -13.8 79 16 9 16.1 100.08   -16 LegendNANA
02:00 Legend Double Dagger -10.7 -14.5 74 15 11 16.1 100.16   -16 LegendNANA
03:00 Legend Double Dagger -8.8 -13.8 68   0 16.1 100.25     LegendNANA
04:00 Legend Double Dagger -13.1 -16.5 76 13 9 16.1 100.33   -19 LegendNANA
05:00 Legend Double Dagger -13.2 -17.2 72 14 11 16.1 100.40   -19 LegendNANA
06:00 Legend Double Dagger -12.4 -16.7 71 15 9 16.1 100.47   -18 LegendNANA
07:00 Legend Double Dagger -14.5 -17.9 76 17 4 16.1 100.53   -17 LegendNANA
08:00 Legend Double Dagger -13.8 -17.3 75 14 5 16.1 100.60   -17 LegendNANA
09:00 Legend Double Dagger -14.9 -18.0 78 13 9 16.1 100.65   -21 LegendNANA
10:00 Legend Double Dagger -14.0 -17.2 77 15 5 16.1 100.72   -17 LegendNANA
11:00 Legend Double Dagger -14.3 -17.6 77 14 9 16.1 100.78   -20 LegendNANA
12:00 Legend Double Dagger -14.1 -17.8 74 14 13 16.1 100.84   -21 LegendNANA
13:00 Legend Double Dagger -13.6 -17.6 72 14 11 16.1 100.91   -20 LegendNANA
14:00 Legend Double Dagger -11.5 -15.9 70 16 8 16.1 100.99   -16 LegendNANA
15:00 Legend Double Dagger -12.0 -15.9 73 16 11 16.1 101.05   -18 LegendNANA
16:00 Legend Double Dagger -12.6 -16.2 75 14 17 16.1 101.10   -20 LegendNANA
17:00 Legend Double Dagger -12.7 -16.8 72 15 18 16.1 101.16   -21 LegendNANA
18:00 Legend Double Dagger -12.9 -17.1 71 14 21 16.1 101.21   -22 LegendNANA
19:00 Legend Double Dagger -13.0 -17.2 71 15 18 16.1 101.27   -21 LegendNANA
20:00 Legend Double Dagger -14.3 -17.8 75 16 18 16.1 101.31   -23 LegendNANA
21:00 Legend Double Dagger -14.4 -18.5 71 15 18 16.1 101.36   -23 LegendNANA
22:00 Legend Double Dagger -14.9 -18.2 76 16 24 16.1 101.41   -25 LegendNANA
23:00 Legend Double Dagger -14.7 -17.4 80 15 24 16.1 101.46   -25 LegendNANA

Notes on Data Quality.

Legend

  • E = Estimated
  • M = Missing
  • NA = Not Available
  • ‡ = Partner data that is not subject to review by the National Climate Archives
Date modified: